India Forums Logo

Pyaar Kii Ye Ek Kahaani

India Forums > Forum Index > Pyaar Kii Ye Ek Kahaani
Pyaar Kii Ye Ek Kahaani is a contemporary, visual, and visceral Romeo and Juliet story of the ultimate forbidden love affair - between a non human and a mortal - Dangerous Love!
...
<< | 304 | 305 | 306 | 307 | 308 | 309 | 310 | 311 | 312 | 313 | 314 | 315 | 316 | 317 | 318 | 319 | 320 | 321 | 322 | ... >>
TIDTopic SubjectStart DateLast Entry
3797682HAPPY DEWALI..<311/2/2013 7:27:17 AM11/3/2013 8:09:56 AM
3799393Diwali blast11/4/2013 6:32:39 AM11/6/2013 5:51:59 AM
3799849removed.11/4/2013 11:38:04 AM2/9/2014 9:52:22 AM
3799975Fanfiction Help11/4/2013 2:32:47 PM11/6/2013 2:13:47 AM
3801052Abhiya OS- Your Highness!!!11/5/2013 1:25:27 PM11/6/2013 8:37:58 AM
3801090Enigmatic AbhIya AT#174 ||Baby We Are FIRE and ICE ||11/5/2013 2:33:20 PM11/9/2013 10:30:55 PM
3801126Abhay , T and Panchi on Girlfriend remix _Requested11/5/2013 4:13:48 PM11/7/2013 1:08:02 PM
3801622Vivian, Vahbeez, Suyyash at Rithvik's Bday party!11/6/2013 5:14:18 AM11/6/2013 9:20:21 PM
3801670Yaha sab filmy hai11/6/2013 6:08:09 AM11/24/2013 8:11:12 PM
3801689supporting character11/6/2013 6:20:53 AM11/30/2013 8:42:14 PM
3802118PKYEK - Destroyed For Love - New Promo11/6/2013 10:33:01 AM11/9/2013 2:32:29 AM
3802178sukku new pics in white dress11/6/2013 11:15:30 AM11/8/2013 4:13:07 PM
3803671not relevant11/7/2013 2:08:32 PM12/19/2013 9:19:31 AM
3803706Sukirti in The Bachelorette India !!! more pics added ;):)11/7/2013 3:46:13 PM12/19/2013 9:11:13 AM
3804050woawww sukuuuu ... stunning !!!!11/8/2013 1:01:48 AM12/19/2013 9:08:13 AM
3804096HAPPY BIRTHDAY DISHU AKA BOURNVILLE11/8/2013 2:00:38 AM11/13/2013 9:23:55 AM
3804273Abhiya FF " Made for Each Other11/8/2013 5:37:42 AM1/18/2014 11:15:39 PM
3804288Remember this scene11/8/2013 5:59:16 AM11/25/2013 11:29:58 AM
3804504"ALS is the worst reporter I have come across" Pavi(FT)11/8/2013 8:25:04 AM11/19/2013 5:59:09 AM
3804950pkyek group but who is missing11/8/2013 1:33:03 PM11/23/2013 11:08:34 AM
3805746OS: HOPE11/9/2013 7:49:39 AM3/12/2014 8:55:15 PM
3805846telly calendar info .. sukirti ;)11/9/2013 9:17:13 AM11/9/2013 3:30:37 PM
3806079Abhiya AT#175 ||Kind Of Love That Never Dies||11/9/2013 11:59:41 AM11/12/2013 1:17:28 PM
3806164~~|| Abhiya VM on Tu Jaane Na _Requested ||~~11/9/2013 1:30:02 PM11/16/2013 3:45:57 PM
3806544THE EPIC STORY - PKYEK VM ( must watch )11/10/2013 1:09:07 AM11/15/2013 2:11:47 AM
3806583PKYEK2 -Destroyed For Love - Episode 4511/10/2013 1:54:16 AM12/2/2013 4:30:21 AM
3806850Congrats Shailesh(New IF Dazzler)11/10/2013 6:47:08 AM11/13/2013 5:33:28 AM
3807080RP 82:Love Have Power To Heal Deep Wound11/10/2013 10:33:42 AM12/11/2013 12:00:37 PM
3807082Sukriti Resemblance Sofia Boutella of Street Dance 2???11/10/2013 10:35:53 AM11/12/2013 11:07:35 AM
3807449Unseen pics of Sukirti from Miss India Worldwide contest11/11/2013 12:29:51 AM11/14/2013 12:26:00 AM
3807576dekh bhai dekh :v11/11/2013 2:50:08 AM11/23/2013 11:46:17 AM
3807608Congrates ---Lizo---(New IF Dazzler)11/11/2013 3:35:34 AM11/13/2013 12:00:13 PM
3807826remember this one .?!11/11/2013 7:04:34 AM11/23/2013 11:42:52 AM
3807848sukirti - new/ old pic :);)11/11/2013 7:22:13 AM11/18/2013 3:59:26 AM
3808595Aa dkhe zara.. kisme kitna hai dum11/11/2013 8:35:42 PM11/22/2013 6:32:40 AM
3808889Faltu post :p11/12/2013 2:45:00 AM11/23/2013 11:14:37 AM
3809481AbhiyaAT#176 ||My Eyes Literally Turn To Hearts When I See U||11/12/2013 10:25:08 AM11/16/2013 2:43:18 AM
3809488Happy b'day - '' Neha '' aka '' laxmii ''11/12/2013 10:29:53 AM11/14/2013 7:11:40 AM
3809969The Telly times article : Sukirti Kandpal11/12/2013 10:55:13 PM11/15/2013 4:27:35 PM
3810196TC article, Telly Calendar!! Sukirti ?!11/13/2013 3:27:59 AM11/14/2013 6:58:11 AM
3811675Childhood.... ;)11/14/2013 5:41:41 AM11/21/2013 5:07:28 AM
3812328os E.T (note pg 3)11/14/2013 3:18:48 PM12/3/2013 8:03:20 AM
3812472AP#177 *Yeh Laal Ishq, Tera Naam Ishq, Mera Naam Ishq..hai Malal Ishq*11/14/2013 9:43:19 PM11/24/2013 10:00:34 AM
3813328Free cp from za productions for sukku fans :)11/15/2013 10:54:27 AM11/23/2013 11:03:56 AM
3813356sukku new offscreen pix from sets11/15/2013 11:17:05 AM11/21/2013 3:47:48 AM
3813815Bhatakte haath- Part 3 ;)11/16/2013 2:02:55 AM6/30/2014 3:40:09 AM
3814192os- true story - life11/16/2013 8:46:32 AM12/15/2013 3:44:17 AM
3814375PKYEK - Destroyed For Love.. Epi 4611/16/2013 11:10:54 AM12/2/2013 4:50:54 AM
3815717tc.. Article, Kishwer Merchantt ;)11/18/2013 2:14:19 AM11/19/2013 3:39:28 AM
3815972Meaning Of True Love..<311/18/2013 6:56:03 AM11/19/2013 8:46:04 AM
3817568Sukirti's bday video :)11/19/2013 10:27:43 AM11/21/2013 3:49:12 AM
3818513Broken - Fan fiction11/20/2013 6:52:22 AM2/16/2014 2:17:57 PM
3818718removed11/20/2013 9:12:31 AM2/9/2014 10:04:57 AM
3820139Abhiya- -Saason main tumhari hume samane do-edited on page-9! JAN-14th11/21/2013 10:37:51 AM6/25/2014 1:32:13 PM
3820949PKYEK2 -Destroyed For Love - Episode 4711/22/2013 5:50:10 AM12/2/2013 5:08:36 AM
3822164SAYU BIRTHDAY THREAD>><311/23/2013 4:54:02 AM11/23/2013 11:04:20 AM
3822306Sukirti n Priya at Partha Mitra Bday party11/23/2013 7:54:21 AM11/26/2013 9:57:45 PM
3822661...11/23/2013 1:16:08 PM10/3/2014 10:19:20 AM
3822962Sukirti n Siddhant in ZRA11/24/2013 12:28:53 AM11/27/2013 10:50:11 PM
3823115Vishal Gandhi in Rang rasiya11/24/2013 3:47:26 AM11/27/2013 3:12:54 AM
3823129AbhiyaAT#178 Gravitation Is Not Responsible For People Falling In Love11/24/2013 4:02:38 AM11/29/2013 1:06:19 AM
3823280New Romantic AbhiYa VM (Peep In)11/24/2013 6:46:32 AM11/28/2013 1:05:34 AM
3824700-Abhiya Vm on Ajnabi Mujhko Itna Bata - Requested -11/25/2013 12:20:06 PM11/27/2013 4:30:51 AM
3825057TWEETER KI JITTER11/25/2013 10:13:14 PM11/26/2013 9:42:59 PM
3825081SUKIRTI FINALLY JOINS TWITTER!!!11/25/2013 10:47:08 PM11/26/2013 1:23:38 PM
3825126Got a reply frm Suku on Twitter :D11/25/2013 11:44:53 PM11/26/2013 1:27:06 PM
3825274Remembering old days :D11/26/2013 2:47:49 AM11/29/2013 8:21:58 AM
3825581sukirti s pic profil on twitter ;);)11/26/2013 7:14:00 AM11/29/2013 8:58:17 AM
3826711Vote for Vivian Dsena -Face of the year 201311/27/2013 3:09:22 AM11/30/2013 2:07:14 PM
3826837Game of KISS :v :v :v11/27/2013 5:47:19 AM11/30/2013 9:24:40 AM
3827925REMOVED.....11/28/2013 2:23:58 AM4/19/2015 10:27:55 AM
3828502Kishwer Merchantti in Life OK's Savdhan India11/28/2013 9:45:03 AM11/29/2013 2:57:12 PM
3829016AbhIyaAT#179|Here Im Falling Deep In Da Moment Of Luv Into Ur Gravity|11/28/2013 10:24:16 PM12/11/2013 9:02:32 AM
3830428Imagine this word For say Vivian to Us..11/30/2013 1:50:35 AM11/30/2013 6:58:17 AM
3830579Kishwer welcoming Sukirti in twitter as her "bahu" + new pic11/30/2013 5:01:42 AM12/2/2013 3:49:24 AM
<< | 304 | 305 | 306 | 307 | 308 | 309 | 310 | 311 | 312 | 313 | 314 | 315 | 316 | 317 | 318 | 319 | 320 | 321 | 322 | ... >>